Location: Shepherdstown, WV
(39.4326°N, 77.8042°W)
Time: 03:53:33
(UTC-04:00)

Vanguard 1 - Pass Details

Date: 28 September 2021
Orbit: 653 x 3829 km, 34.2° (Epoch: 18 October)

Event Time Altitude Azimuth Distance (km) Brightness Sun altitude
Rises 20:02:55 0° 248° (WSW) 5,394 15.0 -13.3°
Reaches altitude 10° 20:05:50 10° 246° (WSW) 4,726 14.5 -13.9°
Maximum altitude 20:20:33 71° 166° (SSE) 3,304 12.5 -16.7°
Enters shadow 20:37:47 22° 91° (E) 5,866 13.4 -20.0°
